If you wish to contribute or participate in the discussions about articles you are invited to join SKYbrary as a registered user

 Actions

Alcantarilla Airport

From SKYbrary Wiki

LERI
Airport
ICAO: LERI
Summary
Name Alcantarilla Airport
Region Europe
Territory Spain ES.gif
Location
Serving Murcia
Elevation 76.2 m
250 ft
250 ft76.2 m
Type medium airport
Coordinates 37° 57' 4.00" N, 1° 13' 49.15" W
Runways
Designator Length Width Surface ROPS
7/25 938 m3,077.428 ft
45 m147.638 ft
ASP /


METAR
Observation LERI 060700Z VRB01KT CAVOK 23/14 Q1011 NOSIG
Station Murcia / Alcantarilla
Date/Time 06 June 2020 07:00:00
Wind direction °
Wind speed 01 kts
Lowest cloud amount clouds and visibility OK
Temperature 23°C
Dew point 14°C
Humidity 56%
QNH 1011 hPa
Weather condition n/a